Weather History for KLMT - October, 2012

Change the Weather History Date:

Monday, October 22, 2012

  Actual Average Record
Temperature  
Mean Temperature 38 °F 45 °F  
Max Temperature 43 °F 60 °F 75 °F (2003)
Min Temperature 33 °F 30 °F 16 °F (1961)
Degree Days  
Heating Degree Days 27 20  
Month to date heating degree days 315 359  
Since 1 July heating degree days 507 715  
Cooling Degree Days 0 0  
Month to date cooling degree days 0 0  
Year to date cooling degree days 177 169  
Moisture  
Dew Point 33 °F    
Average Humidity 84    
Maximum Humidity 100    
Minimum Humidity 53    
Precipitation  
Precipitation 0.11 in 0.04 in 1.02 in (1931)
Month to date precipitation 0.35 0.49  
Year to date precipitation 6.47 10.76  
Sea Level Pressure  
Sea Level Pressure 29.63 in    
Wind  
Wind Speed 9 mph (SW)    
Max Wind Speed 21 mph    
Max Gust Speed 28 mph    
Visibility 9 miles    
Events Rain , Snow    
T = Trace of Precipitation, MM = Missing Value Source: NWS Daily Summary

Daily Weather History Graph

Daily Weather History Graph

Search for Another Location

Airport or City:

Trip Planner

Search our weather history database for the weather conditions in past years. The results will help you decide how hot, cold, wet, or windy it might be!

Date:

Astronomy

Oct. 22, 2012 Rise Set
Actual Time 7:28 AM PDT 6:13 PM PDT
Civil Twilight 6:59 AM PDT 6:41 PM PDT
Nautical Twilight 6:27 AM PDT 7:14 PM PDT
Astronomical Twilight 5:54 AM PDT 7:46 PM PDT
Moon 2:31 PM PDT (10/22) 12:13 AM PDT (10/22)
Length of Visible Light 11h 42m
Length of Day
10h 45m
First Quarter, 57% of the Moon is Illuminated
Oct 22
First Quarter
Oct 29
Full
Nov 6
Last Quarter
Nov 13
New
Nov 20
First Quarter

Hourly Weather History & Observations

Time (PDT) Temp. Windchill Dew Point Humidity Pressure Visibility Wind Dir Wind Speed Gust Speed Precip Events Conditions
12:53 AM 39.0 °F 33.4 °F 28.0 °F 65% 29.64 in 10.0 mi SE 8.1 mph - N/A   Overcast
1:53 AM 42.1 °F 36.6 °F 30.9 °F 65% 29.60 in 10.0 mi South 9.2 mph - N/A   Overcast
2:53 AM 39.9 °F 33.4 °F 33.1 °F 77% 29.60 in 10.0 mi SSW 10.4 mph - 0.00 in Rain Light Rain
3:53 AM 39.0 °F 34.8 °F 34.0 °F 82% 29.58 in 10.0 mi South 5.8 mph - 0.00 in Rain Light Rain
4:53 AM 39.0 °F 32.3 °F 33.1 °F 79% 29.55 in 10.0 mi South 10.4 mph 19.6 mph 0.00 in Rain Light Rain
5:24 AM 37.4 °F 29.8 °F 33.8 °F 87% 29.58 in 10.0 mi SSE 11.5 mph - 0.01 in Rain Light Rain
5:44 AM 35.6 °F 28.6 °F 33.8 °F 93% 29.58 in 9.0 mi SSE 9.2 mph - 0.02 in Rain Light Rain
5:53 AM 36.0 °F 29.6 °F 34.0 °F 93% 29.57 in 10.0 mi South 8.1 mph - 0.02 in Rain Light Rain
6:00 AM 35.6 °F 28.0 °F 33.8 °F 93% 29.59 in 9.0 mi South 10.4 mph - 0.01 in Rain Rain
6:53 AM 35.1 °F 26.9 °F 35.1 °F 100% 29.57 in 10.0 mi SSE 11.5 mph - 0.05 in Rain Light Rain
7:53 AM 36.0 °F 29.6 °F 36.0 °F 100% 29.56 in 10.0 mi SSE 8.1 mph - 0.01 in Rain Light Rain
8:53 AM 36.0 °F 29.0 °F 36.0 °F 100% 29.59 in 6.0 mi SSW 9.2 mph - 0.01 in Rain , Snow Light Rain
9:41 AM 35.6 °F 31.7 °F 35.6 °F 100% 29.61 in 10.0 mi West 4.6 mph - 0.01 in   Mostly Cloudy
9:53 AM 37.0 °F 29.8 °F 37.0 °F 100% 29.62 in 10.0 mi WSW 10.4 mph - 0.01 in   Mostly Cloudy
10:53 AM 39.2 °F 30.8 °F 37.4 °F 93% 29.63 in 10.0 mi WSW 15.0 mph - N/A   Mostly Cloudy
10:57 AM 39.2 °F 30.8 °F 35.6 °F 87% 29.63 in 10.0 mi West 15.0 mph - 0.00 in Rain Light Rain
11:24 AM 37.4 °F 29.8 °F 35.6 °F 93% 29.64 in 10.0 mi WSW 11.5 mph - 0.00 in   Mostly Cloudy
11:53 AM 37.9 °F 30.9 °F 37.0 °F 97% 29.64 in 10.0 mi West 10.4 mph - 0.00 in   Mostly Cloudy
12:01 PM 39.2 °F 33.6 °F 37.4 °F 93% 29.65 in 10.0 mi West 8.1 mph - 0.00 in   Light Ice Pellets
12:26 PM 37.4 °F 29.3 °F 33.8 °F 87% 29.65 in 10.0 mi West 12.7 mph - 0.00 in   Mostly Cloudy
12:53 PM 39.0 °F 31.8 °F 30.9 °F 73% 29.65 in 10.0 mi WSW 11.5 mph - 0.00 in   Mostly Cloudy
1:47 PM 42.8 °F 35.1 °F 30.2 °F 61% 29.65 in 10.0 mi WNW 16.1 mph 24.2 mph 0.00 in   Unknown
1:53 PM 42.1 °F 33.6 °F 30.9 °F 65% 29.63 in 10.0 mi West 18.4 mph 24.2 mph 0.00 in   Mostly Cloudy
2:53 PM 39.9 °F 32.5 °F 28.9 °F 65% 29.65 in 10.0 mi West 12.7 mph - N/A   Mostly Cloudy
3:53 PM 42.1 °F 34.9 °F 27.0 °F 55% 29.62 in 10.0 mi West 13.8 mph - N/A   Mostly Cloudy
4:53 PM 42.1 °F 36.6 °F 28.0 °F 58% 29.64 in 10.0 mi WSW 9.2 mph - N/A   Overcast
5:24 PM 41.0 °F 34.7 °F 28.4 °F 61% 29.65 in 10.0 mi West 10.4 mph - 0.00 in   Unknown
6:53 PM 34.0 °F 26.6 °F 32.0 °F 92% 29.69 in 5.0 mi SSW 9.2 mph - 0.01 in Snow Light Snow
7:53 PM 34.0 °F 29.8 °F 32.0 °F 92% 29.70 in 5.0 mi SSE 4.6 mph - 0.00 in Snow Light Snow
8:53 PM 34.0 °F 29.8 °F 32.0 °F 92% 29.70 in 7.0 mi SSW 4.6 mph - 0.00 in Snow Light Snow
9:23 PM 33.8 °F - 30.2 °F 87% 29.68 in 7.0 mi Calm Calm - 0.00 in   Mostly Cloudy
9:53 PM 34.0 °F 29.8 °F 30.9 °F 89% 29.69 in 7.0 mi SSE 4.6 mph - 0.00 in   Mostly Cloudy
11:53 PM 34.0 °F 29.8 °F 32.0 °F 92% 29.71 in 10.0 mi South 4.6 mph - N/A   Overcast